Location: Ferintosh
(52.7647°N, 112.9692°W)
Time: 22:51:39
(UTC+00:00)

S-56A Canister/Altair - Pass Details

Date: 29 May 2024
Orbit: 637 x 2489 km, 38.9° (Epoch: 19 June)

Event Time Altitude Azimuth Distance (km) Brightness Sun altitude
Rises 09:01:12 0° 179° (S) 6,130 - -12.9°
Exits shadow 09:04:30 - 170° (S) 5,629 11.4 -12.7°
Reaches altitude 10° 09:08:37 10° 157° (SSE) 5,123 11.3 -12.4°
Maximum altitude 09:14:08 13° 134° (SE) 4,756 11.4 -12.1°
Drops below altitude 10° 09:19:23 10° 112° (ESE) 4,840 11.6 -11.8°
Sets 09:25:49 0° 89° (E) 5,516 12.3 -11.3°
